QPF
0.00 0.00 0.00 0.00 0.00 0.00 0.00 0.00 0.00 0.00 0.00 0.00 0.00 0.00 0.00 0.00 0.00 0.00 0.00 0.00 0.00 0.00 0.00 0.00 0.00 0.00 0.00 0.00 0.00 0.00 0.00 0.00 0.00 0.00 0.00 0.00 0.00 0.00 0.00 0.00 0.00 0.00 0.00 0.00 0.00 0.00 0.00 0.00 0.00
0.00 0.00 0.00 0.00 0.00 0.00 0.00 0.00 0.00 0.00 0.00 0.00 0.00 0.00 0.00 0.00 0.00 0.00 0.00 0.00 0.00 0.00 0.00 0.00 0.00 0.00 0.00 0.00 0.00 0.00 0.00 0.00 0.00 0.00 0.00 0.00 0.00 0.00 0.00 0.00 0.00 0.00 0.00 0.00 0.00 0.00 0.00 0.00 0.00
0.00 0.00 0.00 0.00 0.00 0.00 0.00 0.00 0.00 0.00 0.00 0.00 0.00 0.00 0.00 0.00 0.00 0.00 0.00 0.00 0.00 0.00 0.00 0.00 0.00 0.00 0.00 0.00 0.00 0.00 0.00 0.00 0.00 0.00 0.00 0.00 0.00 0.00 0.00 0.00 0.00 0.00 0.00 0.00 0.00 0.00 0.00 0.00 0.00
0.00 0.00 0.00 0.00 0.00 0.00 0.00 0.00 0.00 0.00 0.00 0.00 0.00 0.00 0.00 0.00 0.00 0.00 0.00 0.00 0.00 0.00 0.00 0.00 0.00 0.00 0.00 0.00 0.00 0.00 0.00 0.00 0.00 0.00 0.00 0.00 0.00 0.00 0.00 0.00 0.00 0.00 0.00 0.00 0.00 0.00 0.00 0.00 0.00
0.00 0.00 0.00 0.00 0.00 0.00 0.00 0.00 0.00 0.00 0.00 0.00 0.00 0.00 0.00 0.00 0.00 0.00 0.00 0.00 0.00 0.00 0.00 0.00 0.00 0.00 0.00 0.00 0.00 0.00 0.00 0.00 0.00 0.00 0.00 0.00 0.00 0.00 0.00 0.00 0.00 0.00 0.00 0.00 0.00 0.00 0.00 0.00 0.00
0.00 0.00 0.00 0.00 0.00 0.00 0.00 0.00 0.00 0.00 0.00 0.00 0.00 0.00 0.00 0.00 0.00 0.00 0.00 0.00 0.00 0.00 0.00 0.00 0.00 0.00 0.00 0.00 0.00 0.00 0.00 0.00 0.00 0.00 0.00 0.00 0.00 0.00 0.00 0.00 0.00 0.00 0.00 0.00 0.00 0.00 0.00 0.00 0.00
0.00 0.00 0.00 0.00 0.00 0.00 0.00 0.00 0.00 0.00 0.00 0.00 0.00 0.00 0.00 0.00 0.00 0.00 0.00 0.00 0.00 0.00 0.00 0.00 0.00 0.00 0.00 0.00 0.00 0.00 0.00 0.00 0.00 0.00 0.00 0.00 0.00 0.00 0.00 0.00 0.00 0.00 0.00 0.00 0.00 0.00 0.00 0.00 0.00
0.00 0.00 0.00 0.00 0.00 0.00 0.00 0.00 0.00 0.00 0.00 0.00 0.00 0.00 0.00 0.00 0.00 0.00 0.00 0.00 0.00 0.00 0.00 0.00 0.00 0.00 0.00 0.00 0.00 0.00 0.00 0.00 0.00 0.00 0.00 0.00 0.00 0.00 0.00 0.00 0.00 0.00 0.00 0.00 0.00 0.00 0.00 0.00 0.00
0.00 0.00 0.00 0.00 0.00 0.00 0.00 0.00 0.00 0.00 0.00 0.00 0.00 0.00 0.00 0.00 0.00 0.00 0.00 0.00 0.00 0.00 0.01 0.01 0.00 0.00 0.00 0.00 0.00 0.00 0.00 0.00 0.00 0.00 0.00 0.00 0.00 0.00 0.00 0.00 0.00 0.00 0.00 0.00 0.00 0.00 0.00 0.00 0.00
0.00 0.00 0.00 0.00 0.00 0.00 0.00 0.00 0.00 0.00 0.00 0.00 0.00 0.00 0.00 0.00 0.00 0.00 0.00 0.00 0.00 0.00 0.01 0.00 0.00 0.00 0.00 0.00 0.00 0.00 0.00 0.00 0.00 0.00 0.00 0.00 0.00 0.00 0.00 0.00 0.00 0.00 0.00 0.00 0.00 0.00 0.00 0.00 0.00
0.00 0.00 0.00 0.00 0.00 0.00 0.00 0.00 0.00 0.00 0.00 0.00 0.00 0.00 0.00 0.00 0.00 0.00 0.00 0.00 0.00 0.00 0.00 0.00 0.00 0.00 0.00 0.00 0.00 0.00 0.00 0.00 0.00 0.00 0.00 0.00 0.00 0.00 0.00 0.00 0.00 0.00 0.00 0.00 0.00 0.00 0.00 0.00 0.00
0.00 0.00 0.00 0.00 0.00 0.00 0.00 0.00 0.00 0.00 0.00 0.00 0.00 0.00 0.00 0.00 0.00 0.00 0.00 0.00 0.00 0.00 0.00 0.00 0.00 0.00 0.00 0.00 0.00 0.00 0.00 0.00 0.00 0.00 0.00 0.00 0.00 0.00 0.00 0.00 0.00 0.00 0.00 0.00 0.00 0.00 0.00 0.00 0.00
0.00 0.00 0.00 0.00 0.00 0.00 0.00 0.00 0.00 0.00 0.00 0.00 0.00 0.00 0.00 0.00 0.00 0.00 0.00 0.00 0.00 0.00 0.00 0.00 0.00 0.00 0.00 0.00 0.00 0.00 0.00 0.00 0.00 0.00 0.00 0.00 0.00 0.00 0.00 0.00 0.00 0.00 0.00 0.00 0.00 0.00 0.00 0.00 0.00
0.00 0.00 0.00 0.00 0.00 0.00 0.00 0.00 0.00 0.00 0.00 0.00 0.00 0.00 0.00 0.00 0.00 0.00 0.00 0.00 0.00 0.00 0.00 0.00 0.00 0.00 0.00 0.00 0.00 0.00 0.00 0.00 0.00 0.00 0.00 0.00 0.00 0.00 0.00 0.00 0.00 0.00 0.00 0.00 0.00 0.00 0.00 0.00 0.00
0.00 0.00 0.00 0.00 0.00 0.00 0.00 0.00 0.00 0.00 0.00 0.00 0.00 0.00 0.00 0.00 0.00 0.00 0.00 0.00 0.00 0.00 0.00 0.00 0.00 0.00 0.00 0.00 0.00 0.00 0.00 0.00 0.00 0.00 0.00 0.00 0.00 0.00 0.00 0.00 0.00 0.00 0.00 0.00 0.00 0.00 0.00 0.00 0.00
0.00 0.00 0.00 0.00 0.00 0.00 0.00 0.00 0.00 0.00 0.00 0.00 0.00 0.00 0.00 0.00 0.00 0.00 0.00 0.00 0.00 0.00 0.00 0.00 0.00 0.00 0.00 0.00 0.01 0.00 0.00 0.00 0.00 0.00 0.00 0.00 0.00 0.00 0.00 0.00 0.00 0.00 0.00 0.00 0.00 0.00 0.00 0.00 0.00
0.00 0.00 0.00 0.00 0.00 0.00 0.00 0.00 0.00 0.00 0.00 0.00 0.00 0.00 0.00 0.00 0.00 0.00 0.00 0.00 0.00 0.00 0.00 0.00 0.00 0.00 0.00 0.00 0.01 0.01 0.01 0.00 0.00 0.00 0.00 0.00 0.00 0.00 0.00 0.00 0.00 0.00 0.00 0.00 0.00 0.00 0.00 0.00 0.00
0.00 0.00 0.00 0.00 0.00 0.00 0.00 0.00 0.00 0.00 0.00 0.00 0.00 0.00 0.00 0.00 0.00 0.00 0.00 0.00 0.00 0.00 0.00 0.00 0.00 0.00 0.03 0.04 0.03 0.04 0.05 0.00 0.01 0.00 0.00 0.00 0.00 0.00 0.00 0.00 0.00 0.00 0.00 0.00 0.00 0.00 0.00 0.00 0.00
0.00 0.00 0.00 0.00 0.00 0.00 0.00 0.00 0.00 0.00 0.00 0.00 0.00 0.00 0.00 0.00 0.00 0.00 0.00 0.00 0.00 0.00 0.00 0.00 0.00 0.00 0.02 0.02 0.01 0.04 0.06 0.01 0.02 0.00 0.00 0.00 0.01 0.02 0.01 0.00 0.00 0.00 0.00 0.00 0.00 0.00 0.00 0.00 0.00
0.00 0.00 0.00 0.00 0.00 0.00 0.00 0.00 0.00 0.00 0.00 0.00 0.00 0.00 0.00 0.00 0.00 0.00 0.00 0.00 0.00 0.00 0.00 0.00 0.00 0.00 0.00 0.02 0.01 0.03 0.06 0.05 0.07 0.03 0.00 0.01 0.03 0.04 0.03 0.00 0.00 0.00 0.00 0.00 0.00 0.00 0.00 0.00 0.00
0.00 0.00 0.00 0.00 0.00 0.00 0.00 0.00 0.00 0.00 0.00 0.00 0.00 0.00 0.00 0.00 0.00 0.00 0.00 0.00 0.00 0.00 0.00 0.00 0.00 0.00 0.00 0.02 0.04 0.07 0.06 0.05 0.07 0.05 0.01 0.03 0.07 0.08 0.06 0.01 0.00 0.00 0.00 0.00 0.00 0.00 0.00 0.00 0.00
0.00 0.00 0.00 0.00 0.00 0.00 0.00 0.00 0.00 0.00 0.00 0.00 0.00 0.00 0.00 0.00 0.00 0.00 0.00 0.00 0.00 0.00 0.00 0.00 0.00 0.00 0.00 0.00 0.02 0.02 0.01 0.01 0.01 0.01 0.08 0.10 0.10 0.09 0.03 0.01 0.02 0.01 0.00 0.00 0.00 0.00 0.00 0.00 0.00
0.00 0.00 0.00 0.00 0.00 0.00 0.00 0.00 0.00 0.00 0.00 0.00 0.00 0.00 0.00 0.00 0.00 0.00 0.00 0.00 0.00 0.00 0.00 0.00 0.00 0.00 0.00 0.00 0.00 0.00 0.00 0.00 0.01 0.03 0.05 0.07 0.08 0.06 0.05 0.03 0.02 0.01 0.00 0.00 0.00 0.00 0.00 0.00 0.00
0.00 0.00 0.00 0.00 0.00 0.00 0.00 0.00 0.00 0.00 0.00 0.00 0.00 0.00 0.00 0.00 0.00 0.00 0.00 0.00 0.00 0.00 0.00 0.00 0.00 0.00 0.00 0.00 0.00 0.00 0.00 0.00 0.00 0.01 0.02 0.03 0.04 0.04 0.03 0.03 0.03 0.01 0.00 0.00 0.00 0.00 0.00 0.00 0.00
0.00 0.00 0.00 0.00 0.00 0.00 0.00 0.00 0.00 0.00 0.00 0.00 0.00 0.00 0.00 0.00 0.00 0.00 0.00 0.00 0.00 0.00 0.00 0.00 0.00 0.00 0.00 0.00 0.00 0.00 0.00 0.00 0.00 0.01 0.01 0.02 0.02 0.03 0.02 0.03 0.03 0.01 0.00 0.01 0.00 0.00 0.00 0.00 0.00
0.00 0.00 0.00 0.00 0.00 0.00 0.00 0.00 0.00 0.00 0.00 0.00 0.00 0.00 0.00 0.00 0.00 0.00 0.00 0.00 0.00 0.00 0.00 0.00 0.00 0.00 0.00 0.00 0.00 0.00 0.00 0.00 0.01 0.02 0.01 0.01 0.02 0.03 0.02 0.03 0.02 0.01 0.01 0.01 0.00 0.00 0.00 0.00 0.00
0.00 0.00 0.00 0.00 0.00 0.00 0.00 0.00 0.00 0.00 0.00 0.00 0.00 0.00 0.00 0.00 0.00 0.00 0.00 0.00 0.00 0.00 0.00 0.00 0.00 0.00 0.00 0.00 0.00 0.00 0.00 0.00 0.01 0.01 0.01 0.02 0.02 0.03 0.03 0.03 0.02 0.01 0.01 0.01 0.00 0.00 0.00 0.00 0.00
0.00 0.00 0.00 0.00 0.00 0.00 0.00 0.00 0.00 0.00 0.00 0.00 0.00 0.00 0.00 0.00 0.00 0.00 0.00 0.00 0.00 0.00 0.00 0.00 0.00 0.00 0.00 0.00 0.00 0.00 0.01 0.02 0.02 0.01 0.02 0.02 0.03 0.04 0.03 0.02 0.00 0.01 0.01 0.00 0.00 0.00 0.00 0.00 0.00
0.00 0.00 0.00 0.00 0.00 0.00 0.00 0.00 0.00 0.00 0.00 0.00 0.00 0.00 0.00 0.00 0.00 0.00 0.00 0.00 0.00 0.00 0.00 0.00 0.00 0.00 0.00 0.00 0.00 0.00 0.00 0.02 0.02 0.02 0.02 0.03 0.02 0.01 0.00 0.00 0.00 0.00 0.00 0.00 0.00 0.00 0.00 0.00 0.00
0.00 0.00 0.00 0.00 0.00 0.00 0.00 0.00 0.00 0.00 0.00 0.00 0.00 0.00 0.00 0.00 0.00 0.00 0.00 0.00 0.00 0.00 0.00 0.00 0.00 0.00 0.00 0.00 0.00 0.01 0.02 0.03 0.03 0.02 0.02 0.01 0.01 0.00 0.00 0.00 0.00 0.00 0.00 0.00 0.00 0.00 0.00 0.00 0.00
MSLP
1013.35 1013.29 1013.38 1013.95 1015.62 1016.17 1015.58 1014.08 1012.61 1011.51 1010.51 1009.30 1008.71 1008.72 1009.18 1009.50 1010.15 1011.14 1010.49 1010.97 1011.38 1011.98 1012.34 1012.68 1013.03 1013.34 1013.47 1013.69 1013.92 1014.11 1014.38 1014.64 1014.87 1015.09 1015.38 1015.58 1015.74 1015.88 1016.08 1016.23 1016.24 1016.24 1016.38 1016.35 1016.30 1016.43 1016.66 1016.88 1016.99
1013.61 1013.41 1013.87 1014.97 1016.02 1016.30 1015.08 1013.34 1012.29 1011.14 1009.84 1009.25 1008.44 1008.61 1009.14 1009.63 1009.85 1010.69 1011.07 1011.31 1011.13 1011.74 1012.30 1012.74 1013.03 1013.34 1013.65 1013.89 1014.04 1014.13 1014.36 1014.66 1014.91 1015.17 1015.45 1015.66 1015.89 1016.08 1016.19 1016.33 1016.40 1016.51 1016.72 1016.78 1016.82 1016.91 1017.00 1017.05 1017.11
1013.73 1013.84 1014.85 1015.63 1016.16 1015.90 1014.58 1012.70 1011.77 1010.47 1009.45 1008.91 1008.43 1008.48 1009.12 1009.48 1009.70 1010.12 1010.25 1011.00 1011.30 1011.81 1012.29 1012.79 1013.14 1013.42 1013.67 1013.89 1014.15 1014.31 1014.46 1014.70 1015.05 1015.34 1015.57 1015.83 1016.10 1016.29 1016.46 1016.55 1016.58 1016.72 1016.88 1017.03 1017.09 1017.20 1017.25 1017.32 1017.34
1014.10 1014.69 1015.73 1015.92 1015.94 1014.70 1013.51 1012.40 1011.26 1010.67 1009.67 1008.63 1008.56 1008.99 1009.28 1009.32 1009.49 1009.66 1010.29 1010.95 1011.46 1011.98 1012.37 1012.89 1013.30 1013.56 1013.82 1013.98 1014.18 1014.42 1014.59 1014.90 1015.21 1015.54 1015.75 1016.00 1016.24 1016.53 1016.71 1016.86 1017.00 1017.08 1017.13 1017.13 1017.20 1017.32 1017.45 1017.57 1017.56
1014.56 1015.39 1016.05 1016.17 1015.32 1014.28 1012.99 1012.32 1011.57 1010.89 1010.20 1008.84 1008.67 1009.32 1009.45 1009.34 1009.43 1009.90 1010.40 1010.82 1011.38 1012.22 1012.50 1013.00 1013.41 1013.69 1013.90 1014.07 1014.27 1014.46 1014.67 1014.99 1015.34 1015.63 1015.92 1016.17 1016.33 1016.60 1016.93 1017.10 1017.17 1017.26 1017.31 1017.33 1017.38 1017.45 1017.54 1017.54 1017.55
1015.16 1015.62 1016.35 1016.12 1014.99 1014.01 1012.76 1011.99 1011.69 1010.94 1010.01 1009.12 1009.02 1009.44 1009.91 1009.71 1009.86 1010.38 1010.74 1011.14 1011.33 1011.88 1012.53 1013.05 1013.46 1013.78 1013.99 1014.20 1014.34 1014.46 1014.64 1014.93 1015.30 1015.61 1015.94 1016.20 1016.42 1016.68 1016.92 1017.18 1017.32 1017.38 1017.44 1017.53 1017.49 1017.45 1017.53 1017.54 1017.55
1015.16 1015.80 1015.89 1015.39 1014.69 1013.91 1012.41 1011.73 1011.35 1010.50 1009.74 1008.95 1008.67 1009.68 1010.19 1010.04 1010.09 1010.38 1010.95 1011.49 1011.78 1011.85 1012.53 1013.13 1013.49 1013.82 1014.03 1014.26 1014.44 1014.58 1014.75 1015.02 1015.30 1015.59 1015.87 1016.15 1016.42 1016.66 1016.91 1017.13 1017.37 1017.43 1017.47 1017.56 1017.63 1017.67 1017.68 1017.75 1017.74
1014.84 1015.57 1015.61 1014.96 1014.33 1013.01 1011.74 1011.23 1010.61 1010.35 1009.22 1008.54 1008.37 1009.50 1010.12 1009.81 1009.95 1010.57 1011.23 1011.79 1012.16 1012.43 1012.64 1012.93 1013.43 1013.83 1014.16 1014.41 1014.57 1014.73 1014.85 1015.11 1015.41 1015.70 1015.99 1016.29 1016.47 1016.69 1016.99 1017.21 1017.32 1017.48 1017.55 1017.61 1017.78 1017.77 1017.84 1017.89 1018.02
1014.41 1015.20 1015.24 1014.40 1013.83 1012.58 1011.41 1011.31 1010.46 1009.38 1009.33 1008.84 1008.64 1008.79 1008.60 1009.15 1010.02 1010.78 1011.64 1012.20 1012.43 1012.65 1012.77 1013.07 1013.40 1013.77 1014.08 1014.45 1014.70 1014.88 1014.97 1015.18 1015.47 1015.78 1016.08 1016.33 1016.44 1016.65 1016.96 1017.23 1017.37 1017.51 1017.60 1017.71 1017.76 1017.86 1018.02 1018.09 1018.15
1014.25 1014.56 1014.19 1013.42 1012.91 1012.46 1011.82 1011.51 1011.01 1010.36 1009.65 1009.62 1009.16 1008.87 1008.83 1009.25 1010.10 1010.77 1011.33 1011.90 1012.34 1012.58 1012.95 1013.06 1013.33 1013.59 1013.94 1014.28 1014.76 1015.01 1015.04 1015.23 1015.45 1015.73 1015.94 1016.26 1016.44 1016.57 1016.91 1017.22 1017.40 1017.44 1017.67 1017.70 1017.89 1017.94 1018.16 1018.36 1018.44
1013.90 1013.85 1013.54 1012.86 1012.51 1012.38 1011.93 1011.62 1011.50 1011.01 1010.59 1010.51 1010.16 1009.52 1009.43 1009.64 1009.96 1010.44 1011.03 1011.12 1011.41 1012.01 1012.48 1012.86 1013.10 1013.26 1013.66 1014.04 1014.62 1014.99 1015.12 1015.30 1015.49 1015.69 1016.02 1016.29 1016.47 1016.66 1016.90 1017.25 1017.44 1017.66 1017.81 1017.98 1018.12 1018.36 1018.52 1018.66 1018.81
1013.70 1013.30 1013.06 1012.75 1012.34 1012.41 1012.19 1011.74 1011.60 1011.44 1010.83 1010.53 1010.58 1010.32 1010.29 1010.16 1010.36 1010.33 1010.28 1010.71 1011.25 1011.53 1011.81 1012.29 1012.63 1012.96 1013.25 1013.60 1014.05 1014.44 1014.81 1015.11 1015.44 1015.59 1015.88 1016.21 1016.62 1016.83 1016.97 1017.26 1017.41 1017.63 1017.87 1018.12 1018.32 1018.53 1018.80 1019.02 1019.06
1013.38 1013.17 1012.88 1012.50 1012.29 1012.35 1012.20 1011.94 1011.74 1011.34 1010.95 1010.56 1010.90 1010.72 1010.65 1010.62 1010.26 1010.23 1010.29 1010.28 1010.56 1011.05 1011.28 1011.55 1012.02 1012.37 1012.77 1013.35 1013.64 1014.04 1014.37 1014.84 1015.03 1015.38 1015.54 1015.94 1016.39 1016.60 1016.89 1017.16 1017.40 1017.56 1017.75 1018.06 1018.33 1018.58 1018.91 1019.14 1019.24
1012.86 1012.92 1012.87 1012.56 1012.43 1012.41 1012.27 1011.94 1011.86 1011.24 1011.00 1010.88 1010.63 1010.91 1010.90 1010.56 1010.34 1010.23 1010.31 1010.32 1010.48 1010.42 1010.57 1010.97 1011.40 1011.68 1012.01 1012.50 1013.01 1013.36 1013.74 1014.06 1014.50 1014.78 1015.02 1015.46 1015.70 1016.17 1016.59 1017.03 1017.29 1017.59 1017.73 1018.04 1018.27 1018.67 1019.02 1019.29 1019.37
1012.85 1013.09 1013.08 1012.69 1012.35 1012.24 1012.18 1011.48 1011.21 1011.17 1010.91 1011.16 1010.82 1010.61 1010.46 1010.44 1010.03 1010.09 1009.83 1009.96 1009.92 1009.85 1009.91 1010.27 1010.48 1011.00 1011.38 1011.83 1012.22 1012.43 1012.89 1013.39 1013.95 1014.26 1014.46 1014.81 1015.11 1015.63 1016.20 1016.74 1017.15 1017.44 1017.77 1018.02 1018.42 1018.84 1019.10 1019.39 1019.51
1013.10 1013.48 1013.33 1012.67 1012.25 1012.06 1012.40 1010.67 1010.96 1010.91 1011.03 1011.22 1010.86 1010.79 1010.24 1009.83 1009.63 1009.32 1009.12 1009.20 1009.04 1009.46 1009.51 1009.59 1009.93 1010.15 1010.64 1011.13 1011.61 1011.82 1012.14 1012.52 1013.18 1013.70 1013.87 1014.14 1014.54 1015.09 1015.86 1016.40 1016.90 1017.27 1017.74 1017.99 1018.40 1018.89 1019.37 1019.60 1019.72
1013.51 1013.81 1013.67 1013.31 1012.21 1012.20 1012.21 1011.45 1010.66 1010.43 1010.89 1011.06 1010.90 1010.47 1010.05 1009.40 1008.62 1008.86 1008.53 1008.35 1008.26 1008.46 1008.76 1008.96 1009.36 1009.65 1009.82 1010.42 1011.05 1011.19 1011.32 1011.98 1012.44 1013.01 1013.36 1013.77 1014.29 1014.73 1015.43 1016.03 1016.68 1017.13 1017.70 1018.05 1018.39 1019.03 1019.36 1019.83 1020.00
1013.77 1013.93 1013.83 1013.54 1012.54 1012.27 1012.27 1011.89 1011.14 1010.78 1010.76 1010.72 1010.63 1010.08 1009.49 1009.11 1008.33 1008.07 1008.18 1007.94 1007.95 1007.82 1008.05 1008.21 1008.52 1009.09 1009.45 1010.04 1010.51 1011.06 1011.24 1011.50 1011.87 1012.15 1012.48 1013.07 1013.75 1014.41 1015.05 1015.90 1016.55 1017.00 1017.65 1018.00 1018.46 1018.99 1019.59 1019.91 1020.05
1013.61 1013.80 1013.93 1013.54 1013.03 1012.90 1012.51 1012.11 1011.75 1010.74 1010.45 1010.38 1009.79 1009.38 1008.93 1008.31 1007.58 1007.91 1007.74 1007.55 1007.67 1007.69 1007.64 1007.72 1007.86 1008.14 1008.93 1009.69 1010.20 1010.81 1011.12 1011.26 1011.60 1011.78 1011.96 1012.40 1013.22 1013.92 1014.59 1015.41 1016.19 1016.84 1017.34 1017.79 1018.38 1019.20 1019.66 1020.19 1020.25
1014.01 1014.17 1014.11 1013.69 1013.42 1013.51 1013.10 1012.16 1011.34 1010.46 1009.36 1009.10 1008.76 1008.31 1008.07 1007.82 1007.70 1007.60 1007.33 1007.30 1007.28 1007.08 1007.06 1007.23 1007.28 1007.30 1007.77 1008.45 1008.82 1009.49 1009.94 1010.47 1010.76 1011.24 1011.50 1012.00 1012.79 1013.37 1014.28 1014.95 1015.77 1016.45 1017.08 1017.82 1018.33 1018.73 1019.63 1020.05 1020.20
1014.10 1014.29 1014.58 1014.74 1014.32 1014.36 1014.01 1012.12 1010.81 1009.49 1008.66 1007.98 1007.44 1007.22 1007.51 1007.27 1007.10 1006.80 1006.81 1006.71 1006.76 1006.80 1006.59 1006.64 1006.86 1006.91 1006.84 1007.39 1008.08 1009.08 1010.09 1010.61 1011.04 1011.15 1011.42 1011.78 1012.29 1012.88 1013.70 1014.45 1015.00 1015.78 1016.48 1017.32 1017.90 1018.36 1018.90 1019.81 1020.16
1014.39 1014.45 1014.87 1015.42 1015.78 1016.28 1015.62 1014.10 1011.77 1010.02 1008.86 1007.69 1007.25 1007.41 1007.09 1006.83 1006.54 1006.33 1006.26 1006.11 1006.05 1006.10 1006.13 1006.26 1006.41 1006.54 1006.34 1006.60 1007.47 1007.95 1008.60 1009.71 1009.89 1010.20 1010.87 1011.75 1012.35 1012.79 1013.01 1013.79 1014.55 1015.09 1015.86 1016.79 1017.45 1017.98 1018.51 1019.09 1019.93
1014.65 1014.84 1015.58 1016.34 1017.05 1017.28 1016.57 1016.17 1012.18 1010.65 1009.06 1007.73 1006.94 1006.69 1006.51 1006.18 1006.03 1005.87 1005.92 1005.84 1005.72 1005.69 1005.80 1005.86 1005.94 1006.01 1006.14 1006.18 1006.33 1007.17 1007.57 1008.24 1009.14 1010.23 1011.03 1011.56 1012.35 1012.98 1013.02 1013.49 1014.16 1014.71 1015.33 1016.23 1017.01 1017.72 1018.24 1018.68 1019.32
1014.79 1015.53 1016.59 1017.51 1018.28 1018.42 1016.53 1016.05 1013.40 1010.80 1009.00 1007.68 1007.15 1006.95 1006.53 1005.97 1005.44 1005.40 1005.45 1005.45 1005.69 1005.67 1005.74 1005.72 1005.76 1005.84 1006.10 1006.06 1006.22 1006.33 1007.03 1008.07 1008.99 1010.00 1010.93 1011.55 1012.26 1012.85 1013.19 1013.38 1014.02 1014.33 1014.94 1015.77 1016.66 1017.38 1018.03 1018.37 1018.82
1015.17 1016.50 1018.36 1019.28 1019.65 1018.28 1016.79 1016.13 1012.98 1010.01 1008.58 1007.99 1007.83 1006.98 1006.41 1005.95 1005.52 1005.51 1005.49 1005.71 1005.70 1005.76 1005.77 1005.63 1005.71 1005.70 1005.59 1005.84 1005.91 1006.09 1006.54 1007.11 1007.80 1008.66 1009.81 1010.88 1011.77 1012.55 1012.90 1013.45 1014.01 1014.80 1014.64 1015.70 1016.44 1017.05 1017.80 1018.21 1018.70
1015.83 1016.90 1018.60 1019.65 1020.03 1018.79 1016.88 1014.81 1011.07 1009.14 1008.36 1007.95 1007.45 1007.23 1007.00 1006.96 1006.66 1006.42 1005.95 1005.71 1005.48 1005.39 1005.38 1005.45 1005.54 1005.63 1005.34 1005.27 1005.40 1005.48 1005.83 1006.66 1007.32 1008.07 1008.93 1009.96 1010.78 1011.53 1012.44 1013.26 1014.04 1014.66 1014.76 1015.67 1016.44 1017.18 1017.90 1018.27 1018.66
1016.08 1017.14 1018.21 1019.42 1020.06 1019.62 1016.72 1013.71 1010.86 1008.77 1008.25 1007.95 1007.98 1007.81 1007.83 1007.47 1007.24 1006.95 1006.77 1006.52 1006.04 1005.60 1005.33 1005.27 1005.32 1005.23 1005.09 1004.78 1004.79 1005.26 1005.69 1006.37 1006.99 1007.83 1008.59 1009.34 1010.37 1011.34 1012.36 1013.08 1013.99 1014.73 1014.88 1015.70 1016.58 1017.21 1018.04 1018.45 1018.63
1015.58 1016.87 1018.49 1019.73 1020.59 1019.56 1016.44 1014.33 1011.11 1009.32 1008.80 1008.50 1008.28 1008.27 1008.17 1007.74 1007.47 1007.34 1007.18 1006.74 1006.21 1005.79 1005.39 1005.20 1004.92 1004.75 1004.47 1004.48 1004.55 1005.02 1005.54 1006.16 1006.73 1007.44 1008.15 1008.96 1010.09 1011.01 1012.10 1013.08 1013.86 1014.68 1014.88 1016.03 1017.00 1017.80 1018.43 1018.98 1018.47
1016.25 1017.00 1018.04 1019.04 1019.80 1019.59 1017.68 1013.50 1010.14 1009.36 1008.99 1008.75 1008.74 1008.50 1008.27 1007.82 1007.53 1006.98 1006.60 1006.40 1006.31 1005.75 1005.33 1004.90 1004.37 1004.22 1004.18 1004.31 1004.26 1005.04 1005.69 1006.35 1006.95 1007.45 1008.36 1009.05 1010.19 1010.97 1011.82 1012.86 1013.72 1014.71 1015.42 1016.62 1017.46 1018.35 1018.96 1019.76 1019.10
1016.06 1016.86 1017.71 1018.82 1019.43 1019.29 1018.20 1013.37 1009.86 1009.14 1008.94 1008.82 1008.31 1008.11 1007.66 1007.33 1006.94 1006.61 1006.16 1005.90 1006.07 1005.42 1005.12 1004.84 1004.20 1004.03 1003.83 1004.28 1004.33 1005.13 1005.79 1006.36 1007.38 1007.93 1008.40 1009.23 1010.22 1011.20 1012.06 1012.99 1014.00 1015.06 1016.15 1017.30 1018.21 1018.68 1018.71 1019.89 1019.58
Thickness
5704 5708 5712 5705 5676 5669 5671 5690 5712 5718 5727 5751 5758 5752 5747 5750 5741 5727 5766 5764 5763 5759 5755 5753 5751 5748 5747 5745 5743 5743 5741 5739 5738 5736 5734 5732 5732 5731 5729 5727 5727 5726 5724 5725 5725 5724 5722 5720 5719
5697 5702 5697 5681 5660 5657 5669 5697 5704 5716 5737 5746 5755 5750 5744 5739 5757 5751 5753 5759 5762 5757 5754 5751 5748 5745 5743 5740 5740 5740 5738 5736 5734 5732 5730 5729 5727 5725 5725 5724 5723 5721 5719 5718 5718 5717 5716 5716 5715
5691 5693 5677 5663 5651 5659 5674 5698 5711 5726 5737 5746 5748 5752 5741 5745 5757 5756 5763 5760 5757 5754 5751 5747 5744 5742 5739 5738 5736 5735 5734 5732 5729 5727 5726 5724 5722 5721 5719 5718 5717 5716 5715 5713 5712 5711 5711 5710 5710
5678 5675 5666 5650 5657 5676 5687 5698 5710 5713 5732 5748 5744 5733 5743 5756 5755 5761 5761 5757 5753 5750 5747 5742 5739 5737 5735 5735 5733 5731 5729 5727 5724 5721 5720 5719 5717 5715 5713 5712 5711 5710 5709 5708 5708 5707 5706 5705 5705
5667 5658 5644 5647 5661 5675 5688 5695 5703 5705 5717 5738 5741 5725 5730 5748 5756 5757 5755 5754 5750 5744 5741 5737 5734 5733 5732 5731 5730 5729 5726 5724 5721 5718 5715 5713 5712 5710 5707 5706 5705 5704 5704 5703 5702 5701 5701 5701 5701
5649 5649 5632 5646 5660 5677 5686 5693 5696 5703 5713 5730 5729 5719 5723 5744 5747 5747 5749 5746 5745 5741 5735 5732 5730 5728 5727 5726 5726 5725 5723 5721 5718 5715 5712 5709 5707 5705 5703 5701 5699 5699 5698 5697 5698 5698 5697 5697 5697
5641 5636 5637 5647 5657 5666 5686 5691 5689 5697 5706 5721 5733 5708 5721 5733 5743 5744 5741 5739 5736 5735 5732 5728 5725 5723 5723 5721 5721 5720 5718 5716 5714 5711 5708 5706 5703 5701 5699 5697 5695 5694 5694 5693 5692 5692 5692 5692 5692
5640 5635 5638 5646 5654 5666 5687 5695 5700 5695 5705 5730 5732 5705 5708 5729 5737 5737 5734 5731 5730 5728 5727 5724 5722 5720 5718 5717 5715 5714 5713 5712 5709 5706 5704 5701 5700 5697 5695 5693 5691 5690 5689 5689 5687 5687 5687 5687 5686
5643 5624 5627 5649 5652 5673 5688 5682 5693 5711 5707 5720 5725 5722 5735 5736 5732 5726 5723 5720 5720 5721 5720 5718 5717 5716 5715 5713 5710 5708 5708 5707 5705 5703 5700 5698 5697 5695 5692 5690 5688 5686 5685 5684 5683 5683 5681 5681 5680
5629 5619 5636 5658 5666 5669 5675 5678 5680 5685 5698 5705 5712 5724 5729 5730 5724 5718 5717 5714 5713 5714 5713 5714 5713 5712 5711 5708 5705 5704 5704 5703 5702 5700 5698 5696 5693 5692 5689 5686 5684 5683 5680 5680 5678 5678 5676 5675 5674
5628 5624 5645 5658 5664 5667 5670 5670 5677 5679 5682 5693 5699 5710 5717 5718 5719 5718 5714 5716 5715 5713 5712 5711 5710 5709 5708 5706 5702 5700 5700 5699 5698 5696 5694 5691 5690 5688 5685 5683 5680 5678 5676 5675 5673 5671 5670 5669 5667
5623 5635 5645 5654 5659 5658 5661 5672 5669 5673 5684 5694 5696 5699 5704 5707 5709 5712 5716 5714 5711 5711 5711 5709 5708 5707 5705 5703 5700 5698 5696 5695 5693 5692 5690 5688 5684 5682 5681 5679 5677 5675 5673 5670 5668 5666 5663 5660 5659
5619 5629 5639 5647 5650 5651 5657 5662 5664 5669 5680 5688 5689 5690 5690 5695 5702 5706 5710 5711 5711 5710 5710 5711 5708 5706 5703 5699 5696 5694 5692 5690 5689 5688 5687 5684 5681 5679 5676 5675 5672 5671 5669 5666 5663 5660 5657 5654 5652
5621 5624 5628 5637 5642 5644 5648 5656 5661 5672 5675 5677 5685 5682 5681 5687 5696 5701 5701 5704 5703 5707 5710 5708 5706 5706 5704 5701 5696 5693 5690 5689 5687 5686 5685 5682 5681 5677 5674 5669 5667 5665 5664 5660 5657 5654 5650 5647 5645
5616 5613 5618 5628 5638 5637 5643 5649 5653 5666 5667 5663 5674 5678 5682 5683 5691 5695 5701 5701 5702 5704 5707 5706 5708 5706 5704 5702 5698 5695 5691 5688 5685 5683 5682 5681 5680 5677 5671 5666 5664 5661 5658 5654 5650 5646 5644 5641 5639
5603 5602 5600 5623 5630 5636 5631 5646 5657 5661 5658 5657 5664 5670 5676 5684 5688 5694 5701 5702 5703 5700 5703 5706 5706 5707 5704 5701 5697 5696 5691 5689 5685 5680 5679 5680 5678 5674 5667 5663 5661 5657 5652 5649 5646 5641 5636 5633 5631
5591 5582 5591 5601 5622 5626 5623 5630 5654 5661 5655 5654 5657 5666 5673 5679 5688 5687 5697 5703 5705 5702 5701 5702 5701 5701 5704 5700 5693 5693 5692 5687 5685 5680 5678 5675 5672 5669 5663 5659 5655 5652 5647 5644 5640 5634 5630 5624 5622
5578 5579 5585 5591 5612 5618 5618 5619 5640 5648 5650 5652 5655 5662 5669 5674 5683 5688 5690 5696 5699 5702 5699 5698 5697 5697 5697 5693 5690 5686 5685 5687 5684 5682 5680 5677 5671 5665 5660 5654 5650 5647 5641 5637 5633 5627 5620 5616 5614
5581 5585 5584 5592 5606 5605 5611 5613 5625 5642 5642 5642 5654 5659 5664 5672 5682 5680 5684 5689 5690 5692 5694 5693 5695 5695 5691 5686 5684 5679 5677 5679 5678 5679 5677 5676 5670 5662 5656 5651 5646 5641 5636 5631 5626 5618 5614 5608 5605
5573 5574 5577 5586 5597 5599 5600 5611 5625 5636 5649 5650 5655 5662 5667 5669 5673 5673 5678 5682 5685 5689 5691 5689 5690 5694 5692 5689 5688 5683 5679 5674 5676 5675 5676 5672 5664 5659 5650 5646 5641 5636 5630 5623 5619 5615 5607 5603 5599
5568 5566 5569 5572 5580 5586 5588 5615 5624 5635 5644 5651 5659 5663 5661 5666 5670 5675 5673 5677 5680 5683 5686 5687 5686 5688 5691 5689 5684 5677 5670 5665 5663 5666 5668 5667 5660 5654 5647 5642 5639 5632 5627 5620 5614 5610 5606 5596 5592
5556 5566 5567 5567 5566 5557 5573 5572 5601 5621 5632 5644 5647 5646 5652 5658 5664 5667 5672 5674 5676 5678 5679 5680 5682 5683 5686 5685 5679 5679 5675 5667 5669 5666 5661 5656 5652 5647 5646 5640 5635 5631 5624 5616 5610 5605 5599 5594 5586
5555 5562 5561 5560 5551 5543 5558 5549 5593 5609 5625 5636 5647 5649 5650 5652 5657 5662 5664 5666 5668 5670 5669 5671 5674 5676 5677 5678 5680 5675 5676 5675 5664 5656 5649 5647 5643 5638 5637 5634 5629 5625 5620 5612 5605 5598 5593 5588 5582
5556 5553 5542 5537 5527 5499 5550 5554 5571 5607 5625 5638 5642 5640 5642 5652 5656 5656 5658 5659 5656 5656 5656 5658 5661 5663 5663 5667 5668 5671 5670 5661 5655 5648 5642 5637 5632 5627 5626 5626 5621 5618 5614 5607 5599 5592 5586 5581 5576
5548 5530 5494 5490 5508 5526 5559 5544 5567 5604 5617 5625 5622 5628 5635 5642 5646 5645 5646 5644 5643 5642 5642 5644 5645 5648 5651 5651 5656 5661 5661 5658 5656 5651 5644 5633 5625 5620 5619 5615 5611 5605 5606 5597 5591 5586 5578 5574 5568
5540 5534 5498 5520 5509 5525 5554 5561 5591 5607 5609 5612 5615 5616 5617 5617 5618 5620 5627 5628 5629 5630 5628 5628 5630 5632 5635 5640 5645 5650 5652 5649 5647 5643 5639 5631 5624 5618 5612 5606 5601 5596 5595 5588 5581 5574 5567 5564 5559
5535 5514 5531 5511 5512 5479 5536 5560 5590 5606 5606 5603 5597 5597 5596 5598 5598 5602 5604 5603 5605 5608 5609 5611 5612 5615 5619 5626 5632 5634 5637 5636 5632 5630 5629 5626 5617 5610 5603 5598 5591 5585 5585 5578 5570 5564 5557 5552 5549
5539 5535 5503 5468 5448 5504 5532 5541 5573 5591 5592 5588 5584 5580 5579 5581 5581 5581 5581 5582 5586 5588 5590 5592 5598 5602 5606 5611 5618 5620 5619 5618 5616 5617 5618 5616 5607 5603 5596 5588 5583 5577 5576 5566 5558 5550 5542 5538 5539
5529 5528 5527 5509 5487 5488 5508 5549 5576 5583 5581 5577 5569 5566 5565 5565 5565 5564 5566 5563 5562 5567 5572 5578 5585 5589 5593 5598 5605 5601 5602 5602 5601 5602 5600 5599 5594 5593 5588 5580 5575 5568 5562 5552 5543 5532 5529 5518 5525
5531 5525 5519 5478 5487 5483 5474 5540 5578 5573 5571 5563 5567 5563 5562 5559 5555 5552 5551 5544 5543 5551 5552 5558 5567 5572 5578 5579 5585 5583 5583 5584 5581 5583 5585 5583 5583 5580 5575 5568 5562 5554 5546 5535 5524 5524 5520 5508 5510